Wind_Speed
38 39 41 41 40 37 34 33 33 31 30 29 30 30 24 19 21 24 27 31 32 31 29 27 28 31 33 32 31 31 31 31 29 28 25 23 22 22 23 23 22 21 20 20 21 21 21 20 20 21 22 22 19 17 17 17 17 15 13 12 11 11 11 12 13 13 12 12 12 12 12 12 12 12 13 14 16 17 17 17 17 19 19 20 21
42 41 42 43 42 39 37 35 35 33 31 30 30 29 24 20 22 25 28 30 31 30 28 27 29 32 32 31 30 30 31 31 30 28 27 24 22 20 22 24 25 23 22 22 22 23 23 22 21 21 22 22 19 17 18 18 17 15 13 11 10 10 11 12 13 12 11 12 12 12 11 11 12 12 12 13 14 15 16 16 16 17 18 19 20
44 41 41 43 43 40 38 35 34 34 32 30 30 27 24 22 23 26 28 30 30 29 27 27 30 32 30 29 29 30 31 31 29 28 27 25 23 21 22 24 25 24 23 23 23 23 23 23 22 22 22 21 19 18 18 18 17 16 13 11 10 10 11 12 13 13 12 12 13 13 12 11 11 11 12 12 13 14 15 16 16 17 17 18 19
42 40 39 42 42 39 37 34 33 33 31 29 28 26 24 23 25 27 28 30 29 28 27 28 29 29 28 27 28 30 31 30 29 28 27 26 23 21 22 24 24 23 23 23 23 23 23 23 24 24 23 21 20 19 18 17 16 15 13 12 10 10 11 12 12 13 13 12 13 14 15 15 14 13 12 13 13 14 15 16 17 18 18 19 19
39 39 39 41 41 38 36 34 33 31 29 28 27 25 25 24 25 27 29 29 28 28 27 27 28 27 25 26 28 30 31 30 28 27 26 25 23 22 23 23 23 22 22 23 23 23 23 24 25 25 22 21 20 19 18 17 15 14 13 12 11 11 11 12 12 12 12 12 12 14 16 17 17 16 16 15 15 15 15 16 17 17 18 19 20
37 37 39 40 39 37 35 34 32 29 27 27 27 26 25 25 26 28 29 28 28 28 28 27 27 25 24 25 28 30 31 30 28 27 25 24 23 23 23 23 22 22 23 24 24 24 24 24 24 24 22 20 19 18 17 17 16 15 13 13 12 12 12 12 12 12 12 12 13 14 15 17 18 19 19 19 19 19 18 18 18 18 19 20 20
37 37 38 38 37 36 35 33 30 28 28 28 28 26 26 26 27 29 29 28 28 28 28 27 26 24 23 25 28 31 31 29 28 26 25 24 23 23 23 24 24 24 25 25 24 24 24 24 24 23 23 21 19 18 18 18 17 15 13 12 13 13 13 13 13 13 13 13 14 14 15 16 18 19 20 20 21 21 21 21 21 21 21 21 21
37 36 37 37 36 35 33 32 30 29 30 30 28 26 26 27 28 30 29 28 28 28 27 27 25 23 24 26 29 31 31 29 28 27 25 24 23 23 23 24 25 26 26 25 24 25 24 23 23 24 23 22 19 19 19 18 17 15 14 13 14 14 13 13 13 14 14 15 15 15 16 16 18 19 20 21 22 22 22 22 22 22 22 22 23
35 34 36 36 34 34 33 32 32 31 31 30 27 26 26 27 29 31 30 28 29 29 27 26 25 24 24 28 31 32 31 30 29 28 27 25 24 23 24 24 25 26 26 25 25 24 24 22 22 23 23 22 21 21 21 20 18 17 16 16 16 15 14 14 15 16 16 16 17 17 17 17 18 19 21 21 22 23 23 23 23 23 23 23 24
33 34 35 35 34 34 34 34 33 31 30 28 26 26 26 28 30 32 31 29 30 29 28 27 25 24 26 31 33 32 30 30 30 30 28 27 25 24 24 25 25 26 26 25 25 25 24 22 22 23 23 23 23 23 23 21 19 19 17 16 16 16 15 15 16 17 18 18 18 18 19 19 20 20 21 22 23 23 24 25 24 24 24 25 25
32 34 36 36 35 35 35 34 31 29 28 27 26 26 27 29 32 33 30 30 31 30 28 27 25 25 29 33 33 31 30 30 30 31 30 29 27 26 25 25 26 26 26 25 25 25 24 24 23 23 22 22 23 23 22 19 18 18 17 17 17 16 16 17 18 19 19 19 19 20 21 21 22 22 23 23 24 24 25 25 26 26 26 27 27
31 33 34 35 35 35 35 33 29 28 27 27 27 26 27 30 33 32 30 31 32 30 29 27 25 28 32 33 32 30 30 30 31 31 31 30 28 27 26 26 27 28 26 25 25 24 24 24 25 23 22 22 22 22 21 18 18 19 18 18 16 15 17 19 19 20 20 20 21 21 22 23 24 24 25 25 25 26 26 27 28 28 28 28 29
30 33 35 36 36 35 34 32 29 27 28 29 28 27 28 31 33 31 30 32 32 31 29 26 27 31 33 32 31 30 30 30 31 31 31 31 29 28 28 28 28 28 27 26 25 24 24 25 26 25 23 22 21 21 20 20 20 20 20 19 18 18 21 23 22 22 23 24 26 26 26 26 26 26 26 27 27 28 29 30 30 31 31 31 31
32 35 37 38 36 34 33 31 29 29 29 29 28 28 30 32 33 30 29 32 32 32 29 26 29 32 32 32 32 31 30 30 31 31 31 31 30 30 29 29 29 28 28 27 25 24 25 26 26 25 24 23 23 22 21 20 20 20 19 20 21 24 26 27 27 27 28 29 29 29 29 30 30 29 29 30 31 31 32 32 33 34 34 34 35
33 36 37 37 35 34 33 32 31 32 31 29 30 31 32 34 33 30 30 32 33 33 30 28 31 32 32 34 33 32 31 30 31 31 32 31 31 31 30 30 29 29 29 29 27 25 26 27 26 25 25 25 25 24 23 21 20 20 20 21 23 24 26 26 27 28 30 31 31 31 31 31 31 32 33 33 33 33 32 33 33 34 35 36 37
34 34 35 35 35 34 34 34 35 35 31 29 31 32 33 34 32 30 31 32 33 33 30 30 32 33 34 35 34 33 32 31 31 32 33 32 32 31 31 30 30 30 30 30 27 26 26 26 25 25 25 26 26 25 24 23 22 22 21 22 23 24 25 26 27 29 30 31 31 31 31 31 32 32 33 33 33 33 32 32 32 33 34 35 36
34 33 34 34 35 35 35 35 35 34 30 30 31 32 34 33 31 31 33 33 34 33 30 31 32 34 36 36 35 34 33 32 33 34 34 34 33 32 31 31 31 31 31 30 28 27 26 26 26 26 25 25 25 25 24 24 24 23 23 23 24 25 26 28 29 31 32 32 33 32 32 32 32 31 31 32 32 32 32 32 32 33 33 34 35
34 34 34 34 34 35 36 35 33 31 30 30 31 34 35 33 31 33 34 35 36 33 31 32 33 36 38 37 35 34 33 32 34 35 36 35 34 32 32 32 32 32 31 30 29 28 27 27 27 26 25 25 25 25 26 26 26 26 26 26 27 27 28 30 31 32 34 34 34 33 33 32 32 31 30 30 30 31 31 32 32 33 33 34 35
33 32 33 34 33 34 35 35 32 30 30 30 33 37 36 33 33 35 35 36 36 33 32 33 35 38 38 36 35 34 32 31 33 35 36 36 35 33 33 33 32 32 32 31 30 28 28 28 28 27 26 26 27 27 28 29 29 29 29 29 29 30 30 32 33 33 34 35 34 34 33 33 32 31 30 30 30 31 31 32 32 33 33 34 35
32 32 31 32 33 33 33 32 31 30 30 30 34 38 37 35 35 36 36 38 37 34 33 34 37 40 38 35 34 33 30 29 31 33 35 35 35 35 34 34 33 33 32 31 30 29 28 28 27 26 26 28 29 30 31 31 32 31 31 31 31 32 33 33 33 34 35 35 35 34 33 32 31 30 30 30 30 30 31 31 31 32 33 34 35
36 34 32 31 34 35 32 30 30 30 29 29 33 37 38 37 37 37 38 39 38 36 35 36 40 41 37 35 33 30 29 29 29 31 33 34 34 35 35 35 34 33 32 31 30 29 28 27 26 26 28 30 31 32 32 32 33 33 33 33 33 34 33 33 33 34 35 35 36 35 33 31 30 30 30 30 30 30 31 31 31 32 33 34 35
38 37 34 31 34 36 35 32 32 32 31 30 31 36 38 38 38 38 39 40 38 37 36 38 41 40 36 34 32 28 28 28 28 30 31 33 34 35 36 36 35 34 33 32 31 29 28 27 26 27 30 32 32 33 33 33 33 33 34 34 35 34 34 34 34 35 36 36 36 35 33 30 30 30 30 30 30 30 30 30 31 31 32 33 34
39 38 37 35 35 38 39 39 38 36 34 31 31 35 38 38 37 38 39 40 39 37 37 40 40 37 35 34 30 27 27 26 26 28 29 30 32 34 35 36 36 36 34 33 31 29 28 28 27 28 30 32 33 34 34 34 34 34 35 35 35 34 34 35 36 36 36 35 34 34 32 30 30 30 29 29 28 28 28 28 29 30 30 31 32
39 39 39 38 39 40 41 42 40 38 34 30 32 36 38 38 37 38 40 40 39 39 39 40 38 35 35 33 29 27 26 25 25 25 26 27 29 32 33 35 35 36 35 33 31 30 30 29 29 29 30 32 34 35 35 35 35 35 36 36 36 35 35 36 36 37 36 34 33 33 32 30 29 29 28 27 26 27 28 28 29 29 30 30 31
38 38 39 39 40 41 42 42 41 37 33 32 36 38 38 39 39 38 39 40 40 40 40 38 36 35 35 33 30 27 26 25 24 23 24 26 28 30 32 33 34 34 34 33 31 31 31 31 31 31 32 34 36 36 36 37 36 36 37 37 36 36 35 36 36 37 36 35 33 33 32 30 29 29 28 28 29 30 31 32 33 33 34 34 34
40 38 40 41 42 43 43 44 41 36 34 36 39 40 39 40 39 38 39 41 40 40 40 38 36 36 36 34 31 28 27 26 24 24 25 27 28 30 31 32 32 33 33 32 31 31 31 32 32 33 35 36 37 38 38 37 37 37 37 37 36 35 35 36 37 37 36 35 34 34 32 30 29 30 30 31 32 34 36 37 37 38 38 38 39
45 42 41 41 42 43 44 44 40 35 35 39 41 41 40 38 37 38 41 41 40 41 41 40 39 38 37 36 32 29 28 27 26 26 27 28 29 30 31 31 31 31 31 31 30 30 31 32 33 34 36 37 37 37 37 37 36 36 36 36 35 35 35 36 36 36 34 34 35 35 33 31 30 30 31 32 34 36 38 38 38 39 40 41 42
46 44 42 40 40 41 41 40 38 36 38 41 42 40 39 38 38 40 41 41 41 41 40 41 41 39 38 36 32 30 29 29 28 28 29 30 31 30 31 30 30 31 31 30 30 30 32 32 33 34 35 36 36 36 36 36 35 35 35 35 35 35 36 36 35 33 33 34 36 37 36 34 32 32 33 35 36 38 40 39 40 41 42 43 44
43 43 42 40 38 38 37 36 35 36 37 38 39 39 38 39 39 39 40 41 41 40 41 43 43 41 39 35 31 30 30 30 30 30 30 32 32 31 31 30 30 31 31 30 30 30 32 33 33 34 35 36 36 36 35 35 34 34 35 34 34 35 35 33 32 31 33 35 37 38 38 37 35 34 35 37 39 41 42 43 44 45 47 47 48
42 41 41 39 38 37 36 36 35 35 36 37 38 39 38 38 37 38 41 41 40 41 43 44 43 41 38 33 31 31 31 31 31 31 32 33 33 32 31 31 31 31 31 30 29 30 32 34 34 35 36 37 37 36 35 35 34 34 34 34 34 34 34 32 30 31 34 36 37 38 38 37 36 35 36 39 41 43 44 46 48 49 50 51 52
43 42 41 40 39 39 37 36 37 37 38 39 40 39 38 38 38 39 40 41 41 43 44 44 43 41 36 32 31 32 31 31 32 33 34 34 33 32 32 32 32 32 31 30 30 30 32 34 35 36 38 38 37 36 35 34 33 33 33 34 35 35 35 34 34 35 37 39 39 38 37 37 38 38 39 41 43 45 47 50 52 53 54 55 56
44 42 42 42 41 41 39 38 39 39 40 41 42 41 40 40 41 40 41 43 44 45 45 44 43 39 34 32 32 32 32 32 33 34 35 35 33 32 33 33 32 31 31 30 29 30 32 34 36 37 38 38 37 35 34 33 33 33 33 34 35 37 38 39 39 40 41 42 41 40 39 39 41 42 43 44 45 48 51 54 56 58 60 61 62
45 44 44 44 42 40 39 39 41 42 43 44 45 44 43 43 42 43 44 46 47 47 46 45 42 38 34 33 33 33 32 32 33 34 35 35 33 32 33 33 32 31 30 29 29 30 32 35 37 37 36 35 34 33 33 33 32 32 33 34 37 39 40 41 42 43 44 44 43 42 42 42 43 44 45 46 48 51 54 57 59 62 64 65 67
46 47 47 47 46 45 44 44 45 46 46 45 45 44 44 44 46 47 47 47 47 46 45 44 40 37 35 35 35 33 32 33 34 34 35 34 32 32 31 31 31 31 31 30 30 31 33 36 37 36 34 33 33 33 34 34 33 33 34 35 37 39 40 42 43 43 43 43 43 43 43 44 45 45 47 49 51 54 57 60 62 65 67 68 70
46 48 48 49 50 50 49 48 48 48 46 45 45 46 48 50 50 49 47 45 44 44 43 41 39 38 37 37 36 34 33 33 34 34 33 33 32 31 31 31 31 31 31 31 32 32 34 36 37 37 35 34 34 34 34 33 32 32 32 33 36 39 41 41 41 41 41 41 42 43 44 45 47 49 52 54 57 59 62 64 67 69 71 72 74
44 45 47 49 48 48 49 49 49 50 50 51 52 53 52 51 48 46 44 43 42 41 41 41 40 39 39 38 37 35 34 33 33 32 31 31 31 31 31 32 32 31 31 32 33 34 35 36 37 37 36 35 35 35 33 33 33 32 32 34 38 40 40 39 38 38 39 40 42 44 46 49 51 54 57 60 62 64 66 69 71 73 75 76 76
43 41 42 44 44 46 47 50 52 53 54 54 52 50 48 45 44 44 42 41 41 42 42 42 41 41 40 39 37 35 33 32 32 31 30 31 31 32 32 32 33 33 32 32 33 35 36 36 36 37 36 35 35 35 35 35 35 35 36 38 40 39 38 37 38 39 41 43 45 48 51 53 56 58 60 63 66 67 70 72 75 78 79 78 77
45 41 39 40 43 46 48 50 51 51 50 48 46 44 43 42 42 42 41 41 43 43 43 43 42 42 41 39 36 34 33 32 31 31 31 31 32 33 33 33 33 33 33 32 34 35 36 37 37 36 36 34 33 35 35 35 35 36 37 38 38 38 38 40 42 44 45 47 50 53 55 57 59 61 64 66 69 71 73 76 80 82 81 79 78
48 44 41 41 43 46 47 48 47 46 44 43 42 42 42 41 42 42 43 44 45 44 44 44 43 42 41 39 36 34 32 32 31 31 32 32 33 34 34 33 33 33 33 34 35 37 38 38 37 36 35 34 32 32 33 34 34 34 35 37 38 39 41 43 46 48 50 51 53 56 58 60 62 65 68 70 71 74 77 81 85 84 82 80 78
50 47 45 44 44 45 45 45 44 44 43 42 42 42 43 44 45 46 46 46 45 45 45 45 44 43 41 38 35 33 32 32 32 33 33 33 34 35 34 33 33 34 34 35 36 38 39 39 38 36 35 35 33 32 32 34 35 35 37 39 40 42 45 47 49 50 52 54 57 59 61 63 66 68 70 73 76 78 81 86 88 85 82 80 78
51 48 47 48 47 46 45 44 44 44 44 44 44 45 45 46 46 47 47 47 46 46 46 45 44 42 40 37 36 34 33 33 34 35 35 35 36 37 35 34 34 35 35 36 37 39 40 39 39 37 36 35 35 35 35 36 37 39 41 42 44 45 47 50 52 53 55 57 59 61 64 66 68 70 73 77 80 83 87 91 89 85 83 81 77
49 47 46 48 50 50 48 48 48 48 49 49 48 49 49 48 48 48 48 47 47 47 46 44 43 41 39 38 37 36 35 35 36 36 36 37 38 39 36 35 35 36 37 38 39 40 40 40 40 39 38 38 38 39 40 40 40 41 43 45 47 48 50 53 56 57 58 60 62 63 67 69 72 74 77 80 83 87 91 91 89 86 83 79 74
48 48 47 49 54 56 53 50 50 51 53 53 52 51 50 49 48 48 47 47 47 46 44 43 42 40 39 39 37 37 37 37 37 38 39 41 42 40 38 37 37 37 38 40 41 42 42 42 42 42 41 41 41 42 43 44 45 45 46 47 50 51 53 55 58 61 62 63 64 67 70 74 77 79 82 85 90 93 92 89 86 83 78 74 71
51 52 52 54 57 58 53 50 51 52 52 52 50 49 48 48 48 47 47 47 46 45 44 43 42 41 40 40 39 39 39 39 39 40 42 45 45 42 41 40 39 39 40 42 44 45 46 46 45 44 44 43 44 44 45 47 48 49 50 51 53 54 56 57 60 63 65 66 68 70 74 79 82 82 86 92 97 97 94 92 87 80 73 70 69
53 54 54 53 55 56 52 50 53 53 52 51 50 50 50 50 50 49 49 47 46 47 45 43 42 42 42 41 41 41 41 41 42 43 44 47 47 46 45 45 43 43 45 46 47 49 50 49 48 46 46 46 47 47 48 49 50 51 53 54 56 57 59 60 62 65 68 70 72 74 78 82 83 85 91 98 99 97 96 94 87 79 75 74 74
54 53 52 51 53 56 55 53 55 56 56 55 55 55 54 53 52 50 48 48 48 48 47 45 44 44 43 43 43 43 43 43 44 46 47 48 48 49 48 47 47 47 49 51 52 53 54 52 51 49 49 49 50 50 51 52 53 54 55 57 58 60 61 63 65 68 71 74 77 79 81 83 85 90 95 98 98 96 95 90 85 82 80 80 81
56 56 56 55 56 58 58 57 57 59 59 58 57 57 55 54 52 49 47 48 49 49 48 48 47 45 44 44 45 45 45 46 47 49 50 49 50 50 50 50 50 52 54 55 57 58 58 56 54 52 51 51 52 53 54 54 56 57 58 60 61 62 64 66 68 72 75 79 82 83 83 85 91 96 97 96 96 94 90 85 83 83 83 84 86
60 59 58 57 56 57 58 58 59 59 58 56 56 55 55 54 52 50 48 50 51 51 50 50 49 47 46 46 47 48 49 49 51 52 52 52 52 52 52 53 54 56 57 59 61 61 61 59 57 55 54 55 56 56 57 58 59 60 62 64 65 67 69 71 74 77 80 82 85 87 87 91 98 100 98 97 94 90 86 84 83 84 85 86 87
60 58 57 57 58 60 62 62 62 60 58 57 56 55 54 54 52 51 51 51 52 52 51 50 50 49 49 48 49 51 52 53 53 53 53 54 54 55 56 57 58 59 60 62 63 64 63 61 59 58 58 58 59 59 60 61 63 65 67 69 71 73 75 77 79 81 83 86 89 92 95 99 102 101 100 97 92 87 86 86 86 86 87 88 88
59 57 58 59 61 63 64 64 63 63 62 61 59 57 56 56 55 54 53 52 52 52 51 51 51 51 52 52 53 54 55 56 56 55 55 56 57 58 60 60 61 62 64 65 66 66 65 63 61 60 60 61 61 62 64 66 68 70 72 75 77 79 80 81 82 84 86 89 93 98 102 104 104 102 100 96 90 87 88 88 89 90 91 91 92
58 58 59 60 62 63 63 62 61 61 61 60 58 56 55 55 55 54 54 53 53 53 52 52 52 53 55 57 58 58 58 58 58 58 59 60 61 62 62 63 64 65 67 68 68 68 66 64 62 61 62 63 65 67 70 72 74 76 78 80 82 83 84 85 87 88 90 93 98 103 107 108 105 103 100 96 92 91 92 93 94 95 95 97 97
Wind_Direction
281 281 282 284 286 285 283 284 283 283 283 284 291 295 292 297 308 314 323 332 339 344 346 339 336 342 349 352 352 348 344 341 340 336 334 329 321 317 317 321 329 334 335 334 327 324 325 330 334 334 337 339 339 340 342 339 331 321 315 312 308 304 302 303 303 300 296 293 291 287 282 277 274 273 271 266 260 258 259 257 252 250 248 245 244
278 278 281 283 284 284 284 283 280 279 280 283 289 290 287 292 303 310 320 330 336 341 342 336 336 342 348 351 348 346 344 341 338 333 330 326 321 314 311 316 325 330 331 329 324 323 324 325 329 333 336 339 338 339 343 342 337 327 317 312 310 310 309 306 302 298 287 277 277 280 278 275 274 275 274 271 266 261 261 261 259 257 255 252 250
279 277 280 282 282 283 283 281 278 276 278 282 285 285 283 288 298 307 317 327 333 338 337 333 336 341 345 347 345 344 343 340 335 329 325 324 322 318 315 318 322 325 327 325 322 323 324 323 325 330 334 336 336 336 340 343 342 336 327 320 318 314 310 305 301 299 293 279 270 269 273 277 279 280 279 277 274 270 267 265 263 261 260 258 256
278 277 280 281 281 280 278 277 277 275 276 280 281 281 283 286 294 303 314 323 330 334 332 331 335 339 341 341 341 342 341 338 331 325 323 324 324 321 320 320 321 325 326 324 322 323 323 321 322 327 332 334 334 334 337 342 344 341 333 326 321 316 311 307 305 304 301 293 279 271 271 275 280 282 282 283 281 278 274 270 267 263 260 259 258
277 278 279 280 278 276 275 274 274 274 274 276 277 280 283 285 291 300 310 320 328 331 327 329 333 335 336 336 337 339 338 334 328 323 323 325 324 319 318 319 323 326 325 323 322 322 321 319 321 326 331 332 331 331 334 338 341 340 334 326 319 315 311 309 309 309 308 303 294 284 277 276 277 278 279 280 279 277 275 272 268 264 260 258 258
277 279 278 277 274 272 271 271 271 271 271 272 275 280 282 283 289 297 307 317 326 327 323 326 330 331 331 331 333 335 334 330 324 320 321 325 325 319 316 318 321 322 321 321 320 320 320 319 321 324 327 327 327 328 330 332 334 334 333 328 322 316 312 308 306 307 307 303 297 289 282 278 276 275 276 276 275 275 274 273 271 269 266 264 262
275 277 276 274 271 268 267 268 268 268 269 271 275 280 279 280 286 293 303 314 323 324 319 322 326 326 327 327 329 331 330 325 321 317 317 322 324 322 318 316 317 318 319 320 319 319 321 319 319 319 320 321 322 323 326 327 328 329 330 329 326 320 313 307 304 301 300 297 294 289 284 278 275 273 273 273 273 274 274 274 274 273 272 271 269
274 275 273 271 268 265 265 266 266 267 270 272 275 278 276 276 282 289 299 310 319 320 317 319 321 321 323 324 326 327 325 321 318 314 311 314 319 321 321 320 320 321 322 321 319 319 320 319 317 315 316 317 317 319 323 325 324 323 324 324 322 319 314 309 305 302 298 296 293 291 287 282 278 275 273 272 272 272 272 272 272 272 272 272 271
273 272 268 265 264 264 265 266 267 269 272 271 274 276 272 272 279 286 296 306 314 318 316 315 317 317 319 323 324 323 320 317 314 311 308 307 311 317 322 323 324 325 325 322 319 321 322 320 317 316 316 315 313 315 320 321 319 318 320 322 319 315 313 310 307 304 300 297 294 291 288 285 282 279 278 276 274 273 271 271 271 271 271 271 271
269 268 262 259 262 266 267 268 268 270 270 269 274 274 268 270 278 286 294 302 311 316 315 313 314 314 318 322 323 320 315 313 310 308 306 303 305 311 317 321 323 325 325 322 319 321 322 321 320 318 318 316 314 316 319 321 321 321 323 323 319 312 306 304 302 300 298 295 292 290 287 286 284 282 281 280 278 277 274 273 272 271 270 270 270
265 264 260 260 265 268 268 267 266 267 266 269 275 271 267 271 279 285 290 299 309 315 314 312 311 314 318 321 321 318 313 310 308 306 304 302 302 306 310 314 317 320 323 322 320 320 321 322 323 321 318 314 312 313 316 319 320 321 320 318 319 312 304 302 300 298 297 295 292 289 288 287 286 285 283 281 281 279 278 276 274 273 272 271 270
263 260 260 263 268 270 268 264 262 263 264 270 273 269 268 273 280 285 288 299 309 313 313 310 311 316 319 321 320 316 311 307 306 304 302 301 301 302 304 307 311 316 320 321 319 319 321 324 324 321 316 311 309 309 309 306 304 306 308 311 313 307 302 303 302 301 300 298 296 293 291 290 289 286 283 282 282 282 281 280 279 277 275 274 273
260 260 262 266 269 269 264 260 260 263 267 270 271 271 272 276 281 283 288 301 309 311 310 309 313 318 320 322 320 314 308 305 303 302 300 299 299 300 301 303 308 313 317 318 316 314 316 320 321 318 315 311 309 309 307 302 299 298 299 300 297 296 298 300 299 298 298 299 299 296 293 292 290 286 282 280 280 281 281 281 281 280 279 279 277
259 261 263 265 265 260 257 257 260 266 268 270 273 276 277 279 280 280 291 304 308 309 307 308 315 320 322 323 320 313 307 303 300 299 298 297 297 298 299 301 304 308 312 315 314 310 311 316 317 316 315 313 311 310 308 305 303 301 299 297 294 294 296 297 295 295 296 298 299 298 295 293 290 287 284 283 282 281 280 279 279 279 280 280 280
259 261 260 262 260 256 254 256 262 267 268 270 276 279 279 280 278 280 294 305 307 307 305 307 316 321 323 324 320 315 307 302 299 297 295 295 296 297 297 298 301 304 307 311 313 311 310 312 314 314 314 313 311 310 309 308 305 303 300 298 296 295 294 295 296 296 298 299 298 297 295 293 291 289 288 287 286 285 283 281 280 279 279 279 280
256 257 256 257 258 257 256 258 264 267 267 273 278 278 279 278 276 283 297 304 306 306 303 307 316 321 324 324 321 316 308 302 299 295 293 293 294 295 295 296 299 301 304 308 311 311 310 311 312 313 314 312 309 308 308 307 305 303 301 300 298 298 299 300 301 303 304 304 301 298 294 292 290 289 289 288 287 287 286 285 284 283 282 281 280
253 254 254 256 259 259 260 262 265 265 268 276 279 277 278 276 278 289 299 303 305 302 300 306 315 321 324 323 320 316 308 302 299 296 294 293 292 293 293 295 297 299 302 305 308 309 309 309 311 312 313 312 311 309 308 308 307 305 303 303 302 303 304 305 307 308 309 309 307 302 296 292 290 288 288 287 287 286 285 285 285 285 284 284 283
252 253 253 258 261 261 261 261 261 263 270 278 279 278 276 273 280 292 298 303 303 298 297 305 314 320 322 321 319 316 309 302 299 297 296 294 292 292 292 294 296 298 300 302 306 307 307 308 310 311 311 310 310 310 309 310 309 305 303 302 302 304 306 309 311 312 313 313 312 307 301 295 291 290 289 289 289 289 289 289 289 289 289 289 289
252 252 254 259 261 259 260 261 260 262 270 276 277 278 274 272 282 292 296 300 299 293 295 303 312 318 320 319 318 316 311 304 300 299 298 296 294 292 291 292 293 296 298 301 304 305 306 306 309 310 309 308 308 308 309 310 311 309 306 304 304 306 308 310 313 315 317 317 315 312 307 301 297 295 294 294 294 293 293 293 293 294 294 294 294
250 251 254 258 259 259 259 259 258 261 268 271 273 274 271 272 284 291 295 297 294 290 292 301 310 315 317 318 317 316 313 307 303 302 300 298 296 293 291 291 292 294 296 299 302 304 305 305 307 307 306 305 306 307 309 310 311 311 309 308 307 307 308 310 314 317 318 319 318 316 311 305 302 301 299 298 297 296 296 296 296 296 296 296 295
249 251 253 256 259 257 252 254 258 264 269 269 270 271 268 273 284 290 293 294 290 287 290 299 308 312 315 317 316 316 316 311 307 305 304 301 298 295 293 292 292 292 294 297 300 303 303 303 303 302 300 301 303 305 307 310 310 310 309 309 309 308 308 309 313 316 318 318 318 317 312 307 304 303 303 302 301 301 300 300 300 299 299 298 298
251 252 252 253 257 253 249 254 263 271 274 271 269 268 268 276 284 288 292 291 286 285 288 297 306 311 315 316 314 316 318 314 310 308 307 305 302 299 296 294 292 291 292 294 298 301 300 299 298 296 295 296 298 301 305 308 309 308 308 308 308 307 307 309 312 315 317 317 317 317 313 307 303 303 303 304 304 304 304 304 303 302 300 299 297
253 253 251 249 251 251 251 256 264 272 274 270 266 265 269 276 282 287 290 287 283 282 287 297 306 311 315 314 311 314 318 316 311 308 307 306 304 301 298 296 293 290 290 291 294 298 297 296 295 293 292 293 295 299 302 305 306 306 307 307 308 307 307 309 311 314 316 317 316 315 313 306 301 301 303 304 304 303 302 301 299 298 296 295 294
253 252 251 250 250 252 255 259 265 271 270 265 262 264 268 273 280 286 287 282 280 280 286 297 306 312 314 312 307 309 315 315 311 308 308 307 305 302 300 297 295 292 291 291 292 294 294 293 293 291 290 291 294 297 300 303 304 305 306 307 307 307 307 309 311 313 315 315 314 313 311 305 299 299 301 302 300 298 296 295 295 295 295 294 294
256 253 253 253 253 255 258 261 266 269 265 258 258 261 266 271 279 284 282 279 276 278 286 297 307 312 313 310 304 303 309 311 309 307 308 309 307 304 301 298 297 294 293 292 292 293 293 293 292 291 290 291 294 297 299 302 303 305 306 306 306 306 306 308 309 311 313 314 313 312 310 303 296 295 296 296 296 295 295 294 295 297 298 299 299
258 257 257 257 257 258 260 262 265 266 261 255 256 260 265 272 279 280 278 274 273 278 287 296 306 311 311 308 301 299 304 307 306 305 307 309 309 305 301 298 297 295 294 294 293 294 293 292 292 291 291 292 294 297 299 301 303 304 305 305 305 305 305 306 307 309 311 311 312 312 310 301 293 291 291 292 293 295 297 297 298 300 302 304 304
255 258 260 260 260 261 261 262 262 259 256 256 257 262 268 273 276 275 273 271 273 281 286 293 303 308 309 306 297 294 300 303 302 302 304 307 307 305 300 297 296 295 294 294 294 294 292 292 293 293 293 294 295 297 299 301 303 304 304 303 303 303 304 304 306 307 309 310 310 311 309 302 292 287 287 288 289 293 298 300 302 304 306 307 308
254 257 260 263 265 265 264 263 260 255 254 255 259 265 271 272 272 273 272 272 276 282 284 291 301 305 306 302 292 291 297 299 299 299 301 304 305 303 298 295 295 294 294 295 295 294 293 293 294 294 295 296 297 298 299 301 303 304 303 302 301 302 303 304 305 306 308 309 309 308 307 302 294 286 284 284 286 291 296 300 304 307 309 310 310
254 256 259 265 268 268 267 266 264 261 259 258 262 269 273 272 273 274 273 274 277 281 284 291 298 303 302 296 288 290 295 296 295 296 299 302 303 301 296 293 293 293 294 295 295 295 296 296 297 297 298 298 298 299 300 302 303 303 302 301 300 301 301 302 304 305 308 308 306 303 302 300 296 289 285 284 286 290 296 301 306 309 311 311 311
254 257 260 265 270 270 269 269 268 266 265 263 267 273 274 275 277 276 275 276 278 280 284 290 296 300 297 290 286 290 293 293 292 293 297 301 301 298 294 291 290 291 294 295 296 297 298 299 299 299 299 299 298 299 299 301 302 301 300 299 298 298 297 297 299 302 306 307 305 300 297 295 293 290 287 287 290 294 300 305 309 310 310 311 311
259 261 264 268 271 270 268 267 267 266 265 266 270 274 275 278 280 279 279 280 281 282 285 290 295 296 291 285 286 290 292 291 289 291 296 299 299 296 292 289 289 290 293 294 296 298 298 299 300 300 299 299 298 298 299 299 300 299 298 296 295 294 292 292 293 296 300 304 304 300 294 291 290 289 290 293 297 302 307 310 311 311 311 312 313
260 261 263 266 268 266 265 265 266 266 267 270 273 276 277 279 281 281 282 283 283 283 285 290 293 291 285 284 287 291 291 288 287 290 294 297 296 293 290 289 288 290 292 293 295 297 297 298 299 299 298 298 298 298 298 298 297 297 295 294 293 292 291 290 290 292 297 301 303 298 293 291 290 291 294 299 305 309 312 314 314 315 315 315 316
257 256 257 259 261 262 263 264 267 269 271 274 276 277 278 280 281 282 283 283 283 282 285 288 289 284 282 284 289 291 289 286 286 289 293 294 293 291 289 288 288 289 290 292 294 294 295 297 300 300 299 299 299 297 296 296 295 295 294 293 293 293 293 293 293 294 296 299 299 296 293 292 294 297 301 306 311 314 315 316 317 317 317 317 317
256 254 253 253 255 258 262 266 269 272 273 273 274 275 278 280 283 284 284 282 281 281 283 285 283 280 281 285 290 289 285 284 286 288 291 292 291 290 288 287 287 288 289 291 292 293 294 297 302 303 300 299 298 297 297 295 294 293 293 292 293 295 296 296 296 297 297 298 297 295 293 295 299 304 308 311 314 316 316 317 317 317 317 317 316
258 253 251 251 252 256 261 265 268 270 270 270 271 274 278 282 283 283 282 281 281 281 281 281 280 279 282 287 289 287 284 283 285 287 289 290 290 289 287 286 287 287 288 290 291 293 295 297 300 302 300 297 296 296 296 296 295 295 293 293 294 297 298 297 297 297 297 297 297 298 300 303 307 311 313 315 317 317 317 317 317 317 316 316 314
257 253 252 252 253 257 262 264 266 266 267 269 272 275 278 280 280 279 280 279 278 278 278 278 278 280 283 287 287 285 283 282 283 285 288 290 290 289 287 287 287 288 289 290 292 294 295 296 298 300 298 296 295 294 293 294 295 295 294 294 295 297 296 296 296 297 299 301 304 307 310 312 315 316 316 316 316 316 316 316 316 315 315 313 312
259 255 254 254 256 259 261 263 265 266 268 271 273 275 275 275 275 275 276 275 275 276 277 278 279 281 284 286 284 282 281 280 282 284 287 290 290 289 288 288 289 290 291 291 292 293 295 296 298 298 295 294 294 293 292 292 293 294 293 293 294 296 298 300 302 304 307 310 312 314 316 316 317 316 315 314 315 315 315 314 314 313 312 311 311
262 259 258 258 257 258 260 262 264 266 268 270 271 271 271 271 272 273 273 273 275 277 278 279 281 283 284 283 282 280 279 279 281 283 287 291 292 291 290 291 292 293 294 294 294 294 295 296 297 296 293 292 292 292 292 292 291 292 291 292 296 302 306 309 310 312 313 314 315 315 315 315 314 313 313 313 314 314 313 312 312 312 311 311 310
259 261 262 261 257 256 258 260 263 265 266 267 268 268 269 270 271 272 274 275 276 276 277 279 282 283 283 281 279 278 277 278 281 284 287 291 294 295 294 294 295 296 297 297 296 296 296 297 296 294 291 290 290 290 290 290 291 293 295 298 303 308 310 310 311 312 312 313 313 313 312 312 311 312 313 312 311 311 310 311 312 311 311 310 310
254 259 262 260 257 258 259 262 264 265 265 266 267 268 269 270 272 274 275 275 275 276 278 280 282 282 280 278 277 276 276 278 280 284 288 292 296 297 295 296 299 300 301 300 298 297 297 296 294 292 290 290 291 291 291 294 296 300 302 304 307 309 309 308 309 309 309 310 311 311 310 309 310 311 311 309 308 308 309 310 311 311 311 310 310
249 255 258 257 257 259 261 263 265 265 266 268 268 269 270 271 273 274 275 275 276 277 278 280 281 279 276 276 276 276 276 277 280 284 287 291 295 296 295 297 301 303 303 302 300 298 297 295 293 292 290 291 292 294 296 299 301 303 304 305 307 308 307 306 306 307 308 309 311 309 307 307 308 308 307 306 306 307 309 310 311 311 311 310 309
248 253 254 254 257 260 262 264 266 267 268 269 270 270 271 272 273 274 274 275 276 276 277 279 278 274 273 275 276 275 275 277 280 284 286 289 294 296 295 296 300 303 304 303 302 300 297 296 294 292 292 293 295 298 299 302 303 304 304 304 304 305 305 304 304 305 307 309 309 307 305 305 307 307 306 305 306 307 309 310 311 311 310 309 307
248 253 254 255 258 262 265 267 268 269 269 270 270 270 270 271 272 273 274 274 274 275 275 275 273 271 272 275 275 273 274 276 281 284 285 288 295 298 295 293 296 301 303 303 303 301 298 297 295 294 295 297 299 300 300 302 302 302 303 303 302 303 304 303 302 302 305 306 306 305 305 305 306 306 306 306 307 308 310 311 311 310 308 306 305
245 252 255 257 260 261 262 266 268 268 267 267 268 268 269 270 272 273 273 273 273 273 274 272 270 270 271 272 271 270 272 276 281 284 285 289 295 298 295 291 291 296 300 302 302 301 299 298 297 298 299 300 300 300 301 301 301 301 302 302 302 302 303 302 301 302 303 303 304 305 305 305 306 306 307 308 309 310 311 311 310 309 306 305 305
243 248 253 255 257 259 260 263 266 266 265 266 267 268 269 270 272 273 272 271 271 272 271 269 268 268 269 269 269 270 273 277 282 285 285 287 292 296 296 292 288 292 297 300 301 301 300 300 300 300 301 300 300 301 301 301 301 302 302 301 300 301 301 301 301 300 300 301 302 303 304 304 304 305 307 309 309 311 311 310 309 309 308 310 311
242 245 249 252 256 260 262 262 262 263 265 267 269 270 271 272 273 273 271 269 270 270 269 266 266 267 268 268 268 270 274 278 282 285 286 287 289 292 293 290 288 290 295 298 299 300 300 301 301 301 300 299 299 300 300 300 300 300 300 300 299 299 299 299 299 298 298 299 300 301 302 301 302 305 308 309 310 311 310 309 309 310 312 314 315
244 247 252 255 258 261 261 259 258 261 264 267 268 269 270 272 272 271 269 268 268 268 266 265 266 267 267 267 268 271 274 278 281 284 286 287 289 290 290 288 287 290 294 297 298 299 300 301 302 302 301 300 299 299 298 298 299 299 299 298 298 298 298 298 297 297 298 298 299 300 301 301 303 307 309 309 310 310 308 308 310 312 314 315 314
247 250 254 256 257 257 257 258 259 262 264 265 266 267 268 270 270 270 268 268 267 266 265 265 266 266 264 264 268 272 276 279 283 285 286 287 288 289 288 287 288 290 293 296 297 299 300 301 302 302 301 300 299 299 299 299 299 299 299 298 297 297 298 298 297 297 298 299 300 301 302 304 306 309 310 310 309 309 308 310 312 313 314 313 311
248 250 251 252 254 256 258 260 261 262 262 262 263 265 266 268 270 271 271 269 267 264 263 264 265 264 264 265 269 274 278 281 283 284 285 286 287 287 287 288 289 291 293 295 296 298 300 301 301 300 300 300 300 300 300 299 299 299 299 298 298 298 298 298 298 298 300 301 301 302 304 306 308 309 309 309 309 309 310 311 312 312 311 310 308
248 249 250 251 253 256 258 261 263 263 264 264 265 265 266 268 270 272 272 270 267 263 262 262 263 264 267 270 273 277 280 282 283 283 284 285 285 286 287 288 290 292 293 294 296 298 300 302 301 301 300 299 299 298 298 297 298 298 298 298 298 298 299 299 299 300 301 301 302 303 305 307 309 309 308 308 309 310 311 312 312 312 310 308 305
246 248 249 250 252 255 258 261 265 267 267 268 269 269 269 269 270 270 270 268 265 262 261 261 262 265 270 274 277 280 281 282 282 282 283 284 285 286 287 288 290 291 293 294 296 299 301 301 301 300 298 297 296 296 296 296 297 297 297 298 298 299 299 300 300 301 301 302 303 304 306 308 308 309 309 310 311 312 312 312 312 311 308 306 304
Height
10780 10779 10778 10777 10777 10777 10777 10778 10777 10775 10774 10773 10772 10771 10771 10770 10768 10765 10765 10765 10766 10764 10760 10756 10752 10751 10752 10751 10750 10748 10745 10742 10740 10738 10737 10736 10734 10732 10730 10729 10729 10728 10727 10726 10724 10723 10722 10721 10719 10718 10716 10715 10713 10712 10711 10709 10708 10707 10706 10706 10705 10705 10705 10704 10704 10704 10704 10704 10704 10704 10704 10704 10704 10704 10704 10704 10705 10705 10705 10706 10706 10707 10707 10708 10708
10776 10775 10775 10774 10774 10774 10775 10775 10774 10773 10772 10771 10770 10770 10769 10768 10766 10764 10763 10764 10764 10762 10759 10755 10752 10751 10751 10749 10748 10746 10743 10741 10739 10737 10736 10734 10733 10731 10729 10728 10728 10727 10726 10724 10723 10722 10721 10719 10718 10717 10716 10714 10713 10711 10710 10708 10707 10706 10705 10704 10704 10704 10703 10703 10703 10703 10703 10704 10704 10703 10703 10703 10703 10703 10703 10704 10704 10704 10704 10704 10705 10705 10706 10706 10707
10771 10771 10771 10770 10770 10771 10772 10772 10771 10770 10770 10769 10768 10768 10767 10766 10764 10762 10762 10763 10762 10760 10757 10754 10752 10750 10749 10748 10746 10744 10742 10740 10738 10736 10734 10733 10731 10730 10729 10727 10726 10725 10724 10723 10722 10720 10719 10718 10717 10716 10714 10713 10712 10710 10709 10708 10706 10705 10704 10703 10703 10702 10702 10702 10702 10702 10702 10703 10703 10703 10702 10702 10702 10702 10702 10703 10703 10703 10703 10703 10703 10703 10704 10704 10705
10766 10767 10767 10766 10766 10768 10769 10769 10769 10768 10767 10766 10766 10765 10765 10763 10762 10761 10761 10762 10761 10758 10755 10752 10751 10750 10748 10746 10744 10742 10741 10739 10737 10735 10733 10731 10730 10729 10728 10726 10725 10723 10722 10721 10720 10719 10717 10716 10715 10714 10713 10712 10710 10709 10708 10707 10706 10704 10703 10702 10702 10701 10701 10701 10701 10701 10701 10701 10701 10701 10701 10701 10702 10702 10702 10702 10702 10702 10702 10702 10702 10702 10702 10702 10703
10762 10763 10763 10763 10763 10764 10765 10766 10766 10765 10765 10764 10763 10763 10763 10761 10760 10759 10760 10760 10759 10756 10752 10751 10751 10749 10747 10744 10742 10741 10739 10737 10735 10733 10732 10730 10728 10727 10726 10725 10723 10722 10721 10719 10718 10717 10716 10714 10713 10712 10711 10710 10709 10708 10707 10706 10705 10704 10703 10702 10701 10701 10701 10700 10700 10700 10700 10700 10700 10700 10700 10700 10700 10701 10701 10701 10701 10701 10701 10701 10701 10701 10701 10701 10701
10758 10759 10759 10759 10759 10760 10761 10762 10763 10763 10762 10761 10761 10761 10760 10759 10757 10757 10757 10758 10756 10753 10750 10749 10749 10748 10746 10743 10741 10740 10738 10736 10734 10732 10730 10728 10726 10725 10724 10723 10722 10720 10719 10718 10716 10715 10714 10712 10711 10710 10709 10709 10707 10706 10705 10704 10704 10703 10702 10701 10701 10700 10700 10700 10699 10699 10699 10699 10699 10699 10699 10699 10699 10699 10699 10699 10699 10699 10699 10699 10699 10699 10699 10699 10699
10754 10755 10756 10756 10756 10757 10758 10759 10760 10760 10760 10759 10759 10759 10758 10757 10755 10754 10755 10755 10754 10751 10747 10747 10747 10746 10744 10742 10740 10739 10737 10735 10733 10730 10728 10726 10724 10723 10722 10721 10720 10719 10718 10716 10715 10713 10712 10710 10709 10708 10708 10707 10706 10705 10704 10704 10703 10702 10701 10701 10700 10700 10699 10699 10698 10698 10698 10698 10697 10697 10697 10697 10697 10698 10698 10697 10697 10697 10698 10698 10697 10697 10697 10697 10697
10750 10751 10752 10753 10753 10753 10755 10756 10757 10758 10757 10757 10757 10757 10756 10755 10753 10751 10752 10752 10751 10749 10745 10744 10744 10743 10742 10740 10738 10737 10736 10733 10731 10729 10726 10725 10723 10722 10720 10719 10718 10717 10716 10714 10713 10712 10710 10709 10708 10707 10706 10705 10704 10704 10703 10703 10702 10701 10700 10700 10699 10699 10698 10698 10697 10697 10697 10696 10696 10696 10696 10696 10696 10696 10696 10695 10695 10695 10695 10695 10695 10695 10695 10695 10695
10747 10748 10749 10749 10749 10750 10751 10753 10754 10755 10755 10755 10755 10755 10754 10753 10751 10749 10749 10749 10749 10747 10744 10742 10742 10741 10739 10737 10736 10735 10733 10731 10729 10727 10725 10723 10722 10721 10719 10718 10717 10716 10714 10713 10711 10710 10709 10707 10706 10705 10704 10704 10703 10702 10702 10702 10701 10700 10699 10699 10698 10697 10697 10697 10696 10696 10695 10695 10694 10694 10694 10694 10694 10694 10694 10694 10693 10693 10693 10693 10693 10693 10693 10693 10692
10744 10745 10745 10745 10746 10747 10748 10750 10752 10752 10752 10752 10753 10753 10752 10751 10749 10747 10747 10746 10746 10745 10742 10740 10739 10739 10738 10736 10734 10732 10731 10729 10728 10726 10724 10722 10720 10719 10718 10716 10715 10714 10713 10711 10710 10709 10707 10706 10705 10704 10703 10702 10701 10700 10700 10699 10699 10698 10698 10697 10697 10696 10695 10695 10695 10694 10694 10693 10693 10693 10692 10692 10692 10692 10692 10692 10691 10691 10691 10691 10691 10691 10690 10690 10690
10740 10742 10742 10742 10742 10743 10744 10747 10749 10749 10750 10750 10750 10750 10750 10749 10747 10746 10745 10744 10743 10744 10741 10738 10736 10736 10735 10734 10732 10730 10729 10727 10725 10724 10722 10720 10718 10717 10716 10715 10714 10712 10711 10710 10708 10707 10706 10704 10703 10702 10701 10700 10699 10698 10698 10697 10696 10696 10696 10695 10695 10694 10694 10694 10693 10693 10692 10692 10691 10691 10691 10691 10690 10690 10690 10689 10689 10689 10689 10689 10689 10688 10688 10688 10687
10737 10738 10738 10738 10739 10740 10741 10743 10746 10747 10747 10748 10748 10748 10748 10747 10745 10744 10742 10741 10740 10741 10740 10737 10735 10734 10733 10731 10729 10727 10725 10724 10722 10721 10719 10718 10716 10715 10714 10713 10712 10711 10709 10708 10707 10706 10704 10703 10702 10701 10700 10700 10699 10698 10697 10696 10695 10695 10695 10694 10694 10693 10692 10692 10691 10691 10691 10690 10690 10689 10689 10689 10688 10688 10688 10687 10687 10686 10686 10686 10686 10686 10685 10685 10685
10734 10734 10735 10735 10736 10737 10737 10740 10742 10744 10745 10745 10745 10746 10746 10744 10743 10742 10740 10738 10737 10738 10738 10736 10734 10732 10730 10728 10726 10724 10722 10720 10719 10718 10717 10715 10714 10713 10712 10711 10710 10709 10708 10707 10706 10705 10703 10702 10701 10700 10699 10698 10698 10697 10696 10696 10695 10694 10694 10694 10693 10692 10691 10691 10690 10689 10689 10688 10688 10687 10687 10686 10686 10685 10685 10685 10684 10684 10683 10683 10683 10682 10682 10682 10682
10730 10731 10732 10732 10734 10735 10735 10737 10739 10741 10742 10743 10743 10743 10743 10742 10741 10741 10739 10736 10735 10734 10734 10734 10733 10731 10728 10725 10724 10722 10720 10718 10716 10715 10714 10712 10711 10711 10710 10709 10708 10706 10705 10705 10704 10703 10701 10700 10699 10698 10697 10697 10696 10696 10695 10694 10694 10693 10693 10693 10692 10691 10691 10690 10689 10688 10687 10686 10686 10685 10684 10683 10683 10682 10682 10682 10681 10681 10680 10680 10679 10679 10679 10678 10678
10726 10728 10729 10729 10731 10733 10733 10734 10736 10738 10740 10740 10740 10740 10740 10739 10739 10739 10737 10734 10733 10732 10731 10731 10730 10729 10726 10724 10721 10719 10717 10716 10714 10713 10712 10711 10709 10709 10708 10707 10705 10704 10703 10702 10702 10701 10699 10698 10697 10696 10695 10695 10694 10694 10693 10692 10692 10692 10691 10691 10691 10690 10689 10688 10687 10686 10685 10684 10683 10682 10681 10680 10680 10679 10679 10678 10678 10677 10677 10676 10676 10675 10675 10674 10674
10723 10724 10725 10726 10728 10730 10731 10732 10733 10735 10736 10737 10737 10737 10737 10736 10736 10736 10735 10733 10731 10730 10729 10728 10727 10726 10724 10721 10719 10717 10715 10714 10712 10711 10710 10709 10708 10706 10706 10705 10703 10702 10701 10700 10699 10698 10697 10696 10695 10694 10693 10693 10692 10691 10691 10690 10690 10690 10689 10689 10689 10688 10687 10686 10685 10684 10683 10682 10681 10679 10678 10677 10676 10676 10675 10674 10674 10673 10673 10672 10672 10671 10670 10670 10670
10720 10721 10722 10723 10725 10726 10728 10729 10730 10731 10733 10733 10733 10733 10733 10733 10733 10732 10731 10730 10729 10728 10727 10725 10723 10722 10721 10719 10716 10714 10713 10711 10710 10709 10707 10706 10705 10704 10703 10702 10701 10699 10698 10698 10697 10696 10695 10693 10692 10692 10691 10690 10690 10689 10689 10688 10688 10687 10687 10687 10686 10686 10685 10684 10683 10682 10680 10679 10678 10676 10675 10674 10673 10672 10671 10671 10670 10669 10669 10668 10668 10667 10666 10665 10665
10717 10717 10718 10720 10721 10723 10724 10726 10727 10728 10729 10730 10730 10730 10730 10730 10730 10728 10727 10727 10726 10725 10724 10722 10720 10719 10718 10716 10713 10712 10710 10708 10707 10706 10704 10703 10702 10701 10700 10699 10698 10696 10696 10695 10694 10693 10692 10691 10690 10689 10689 10688 10688 10687 10687 10686 10686 10685 10684 10684 10683 10682 10682 10681 10680 10679 10677 10676 10675 10673 10672 10671 10670 10669 10668 10667 10666 10665 10665 10664 10663 10663 10662 10661 10660
10713 10714 10715 10716 10718 10719 10720 10722 10724 10725 10726 10726 10726 10726 10726 10727 10726 10725 10725 10724 10723 10722 10721 10719 10718 10717 10715 10713 10711 10709 10707 10705 10704 10702 10701 10700 10698 10697 10696 10695 10694 10693 10693 10693 10692 10691 10689 10688 10687 10687 10686 10686 10685 10685 10684 10683 10683 10682 10682 10681 10680 10679 10679 10678 10677 10675 10674 10673 10671 10670 10669 10667 10666 10665 10664 10663 10662 10662 10661 10660 10659 10658 10657 10656 10655
10709 10710 10711 10713 10714 10715 10717 10718 10720 10721 10722 10722 10723 10723 10723 10724 10722 10721 10721 10721 10720 10719 10718 10716 10715 10714 10713 10711 10709 10706 10704 10702 10700 10699 10698 10696 10695 10694 10692 10692 10691 10690 10690 10690 10689 10688 10687 10686 10685 10684 10683 10683 10682 10682 10681 10681 10680 10679 10679 10678 10677 10677 10676 10675 10673 10672 10670 10669 10668 10667 10665 10664 10663 10662 10661 10660 10659 10658 10657 10656 10655 10654 10653 10652 10651
10705 10707 10708 10710 10711 10712 10713 10714 10716 10717 10718 10719 10719 10720 10720 10720 10719 10718 10718 10718 10716 10716 10715 10714 10713 10712 10711 10708 10706 10704 10701 10699 10697 10696 10695 10694 10692 10691 10689 10688 10688 10687 10687 10687 10686 10685 10684 10683 10682 10681 10681 10680 10679 10679 10678 10678 10677 10677 10676 10675 10675 10674 10673 10672 10671 10669 10667 10666 10664 10663 10662 10661 10660 10659 10658 10657 10656 10655 10654 10653 10651 10650 10649 10648 10647
10701 10703 10705 10706 10708 10709 10710 10711 10712 10713 10714 10715 10716 10716 10717 10716 10715 10715 10715 10714 10713 10712 10711 10710 10710 10709 10707 10705 10702 10700 10698 10696 10694 10693 10692 10691 10690 10688 10687 10685 10684 10684 10684 10684 10683 10682 10681 10680 10680 10679 10678 10678 10677 10676 10675 10675 10674 10674 10673 10673 10672 10671 10670 10669 10668 10666 10665 10663 10661 10660 10659 10658 10657 10656 10655 10654 10653 10651 10650 10649 10648 10647 10646 10644 10643
10696 10698 10700 10702 10704 10705 10706 10707 10708 10709 10710 10711 10712 10713 10713 10712 10711 10712 10711 10710 10709 10709 10708 10708 10707 10706 10704 10702 10699 10697 10695 10693 10691 10690 10689 10688 10687 10685 10684 10682 10681 10680 10681 10681 10681 10680 10678 10678 10678 10677 10676 10675 10674 10673 10673 10672 10672 10671 10670 10670 10669 10668 10667 10666 10665 10663 10662 10660 10658 10657 10656 10655 10654 10653 10652 10651 10650 10648 10647 10646 10645 10644 10642 10641 10639
10691 10693 10695 10698 10699 10700 10702 10703 10704 10705 10706 10707 10708 10709 10709 10708 10708 10708 10707 10706 10706 10705 10705 10705 10704 10702 10701 10699 10696 10694 10693 10691 10689 10687 10686 10685 10683 10682 10680 10679 10678 10677 10677 10678 10678 10677 10675 10674 10674 10673 10672 10671 10670 10670 10670 10669 10669 10668 10668 10667 10666 10665 10664 10663 10661 10660 10658 10657 10655 10654 10653 10652 10651 10650 10649 10648 10647 10646 10645 10643 10642 10641 10639 10637 10635
10688 10690 10692 10693 10695 10696 10697 10698 10700 10701 10702 10703 10704 10705 10705 10705 10705 10704 10703 10702 10702 10702 10702 10702 10701 10699 10697 10695 10693 10692 10690 10688 10687 10685 10683 10682 10680 10679 10677 10675 10674 10673 10673 10674 10674 10673 10671 10670 10670 10669 10669 10668 10667 10667 10667 10667 10666 10665 10665 10664 10663 10662 10661 10659 10658 10657 10655 10654 10652 10651 10650 10649 10648 10647 10646 10645 10644 10642 10641 10640 10638 10636 10634 10632 10630
10685 10687 10688 10689 10691 10692 10693 10694 10696 10697 10698 10699 10699 10700 10701 10701 10701 10700 10699 10698 10698 10698 10698 10698 10697 10695 10694 10692 10690 10688 10687 10685 10684 10682 10681 10679 10677 10675 10673 10672 10670 10669 10669 10670 10671 10669 10667 10667 10667 10666 10665 10665 10664 10664 10664 10663 10663 10662 10662 10661 10660 10659 10657 10656 10655 10653 10652 10650 10649 10648 10647 10646 10644 10643 10642 10641 10640 10638 10637 10635 10633 10631 10629 10627 10625
10681 10682 10684 10685 10686 10688 10688 10690 10691 10693 10694 10694 10694 10695 10696 10697 10697 10696 10695 10694 10695 10695 10695 10694 10693 10692 10690 10689 10687 10685 10683 10682 10681 10680 10678 10676 10674 10672 10670 10669 10667 10665 10665 10666 10667 10666 10664 10664 10664 10663 10662 10662 10661 10661 10661 10660 10660 10659 10658 10657 10656 10655 10654 10653 10652 10650 10648 10647 10645 10644 10643 10642 10641 10640 10639 10637 10636 10634 10632 10630 10628 10626 10624 10622 10619
10676 10678 10679 10680 10681 10682 10683 10685 10686 10688 10689 10689 10690 10691 10691 10692 10692 10691 10691 10691 10691 10691 10691 10690 10689 10688 10687 10685 10684 10682 10681 10679 10678 10677 10676 10674 10672 10670 10668 10666 10664 10662 10662 10662 10663 10662 10660 10661 10661 10660 10659 10659 10658 10658 10657 10657 10657 10656 10655 10654 10653 10652 10651 10650 10648 10646 10645 10644 10642 10641 10640 10639 10637 10636 10635 10633 10631 10630 10628 10626 10623 10621 10618 10616 10614
10671 10673 10674 10675 10676 10677 10678 10680 10681 10682 10684 10685 10686 10686 10686 10686 10687 10687 10687 10687 10687 10687 10687 10686 10685 10684 10683 10682 10680 10679 10678 10676 10674 10674 10673 10671 10669 10667 10665 10663 10662 10660 10659 10659 10660 10659 10657 10656 10657 10657 10656 10655 10655 10654 10654 10653 10653 10652 10652 10651 10650 10648 10647 10646 10644 10643 10642 10640 10639 10638 10636 10635 10633 10632 10631 10629 10627 10625 10623 10620 10618 10615 10613 10610 10607
10666 10668 10669 10670 10671 10672 10674 10675 10676 10677 10679 10680 10681 10682 10682 10682 10682 10683 10682 10682 10683 10682 10682 10682 10681 10680 10679 10679 10677 10676 10675 10673 10671 10670 10669 10667 10666 10664 10662 10660 10659 10657 10656 10657 10657 10656 10654 10653 10653 10653 10652 10651 10650 10650 10649 10649 10649 10649 10648 10647 10646 10645 10643 10642 10641 10640 10638 10637 10636 10634 10632 10631 10629 10628 10626 10624 10622 10620 10617 10615 10612 10609 10606 10604 10601
10662 10663 10664 10665 10666 10668 10669 10670 10671 10673 10674 10675 10676 10677 10678 10677 10678 10678 10677 10677 10677 10677 10677 10677 10676 10676 10676 10675 10674 10672 10671 10670 10668 10667 10665 10664 10662 10660 10658 10657 10656 10655 10654 10654 10655 10654 10652 10650 10649 10649 10648 10647 10646 10646 10646 10645 10645 10645 10644 10643 10642 10641 10640 10638 10637 10636 10634 10633 10631 10630 10628 10626 10625 10623 10621 10619 10617 10614 10611 10608 10606 10603 10600 10597 10594
10657 10659 10659 10661 10662 10663 10665 10666 10667 10668 10669 10670 10670 10671 10673 10673 10673 10673 10672 10672 10672 10671 10672 10672 10672 10672 10672 10671 10670 10669 10668 10667 10665 10663 10662 10660 10659 10657 10655 10654 10653 10652 10651 10652 10652 10651 10649 10647 10646 10646 10644 10643 10642 10642 10642 10642 10641 10641 10640 10639 10638 10637 10635 10634 10633 10631 10630 10628 10627 10625 10623 10622 10620 10618 10616 10613 10610 10608 10605 10602 10599 10596 10593 10590 10587
10652 10654 10655 10656 10658 10659 10660 10661 10662 10663 10664 10665 10665 10666 10667 10668 10668 10669 10668 10668 10667 10667 10667 10667 10667 10668 10667 10667 10665 10664 10664 10663 10662 10660 10659 10657 10655 10653 10652 10650 10649 10648 10648 10648 10649 10648 10646 10644 10643 10642 10641 10639 10638 10638 10638 10638 10637 10637 10636 10635 10633 10632 10630 10629 10628 10627 10625 10624 10622 10620 10618 10616 10615 10612 10610 10608 10605 10602 10599 10596 10594 10591 10588 10585 10581
10647 10649 10650 10652 10653 10654 10655 10656 10657 10658 10659 10660 10661 10661 10662 10662 10663 10664 10664 10664 10663 10662 10662 10662 10663 10663 10663 10662 10661 10660 10659 10659 10658 10657 10655 10653 10651 10650 10648 10647 10646 10645 10644 10644 10644 10644 10643 10641 10639 10638 10637 10636 10635 10634 10634 10633 10633 10632 10632 10631 10629 10628 10626 10624 10623 10622 10620 10619 10617 10615 10613 10611 10609 10606 10604 10602 10599 10597 10594 10591 10588 10585 10582 10579 10575
10641 10643 10645 10646 10647 10648 10650 10651 10652 10653 10654 10655 10655 10656 10657 10657 10658 10658 10659 10659 10658 10658 10657 10658 10659 10659 10658 10658 10657 10656 10655 10654 10654 10653 10652 10650 10647 10646 10644 10642 10642 10641 10640 10639 10639 10639 10639 10638 10636 10634 10633 10632 10631 10631 10630 10629 10629 10628 10627 10626 10625 10624 10622 10620 10619 10617 10615 10613 10611 10609 10607 10605 10602 10600 10597 10595 10593 10590 10587 10584 10581 10578 10575 10572 10569
10635 10637 10638 10640 10642 10643 10644 10645 10647 10647 10648 10649 10650 10651 10652 10653 10652 10653 10654 10654 10653 10653 10653 10654 10654 10654 10654 10654 10653 10652 10651 10650 10650 10649 10648 10646 10644 10642 10640 10638 10637 10637 10637 10636 10635 10635 10635 10634 10632 10630 10630 10629 10627 10627 10626 10625 10624 10624 10623 10622 10621 10619 10617 10616 10614 10612 10610 10608 10606 10603 10601 10598 10596 10593 10591 10588 10586 10583 10580 10577 10574 10571 10568 10565 10561
10628 10631 10633 10634 10636 10637 10638 10639 10640 10641 10642 10644 10645 10646 10646 10647 10647 10648 10649 10649 10648 10648 10648 10649 10649 10649 10649 10649 10648 10647 10646 10646 10645 10645 10645 10643 10641 10638 10636 10634 10633 10632 10632 10632 10631 10630 10630 10630 10629 10627 10626 10625 10624 10622 10622 10621 10620 10619 10618 10617 10616 10614 10612 10610 10608 10606 10604 10602 10599 10597 10594 10592 10589 10587 10585 10582 10579 10577 10573 10570 10567 10564 10561 10558 10554
10622 10625 10627 10629 10631 10631 10632 10633 10634 10636 10637 10638 10639 10640 10640 10641 10642 10643 10644 10644 10643 10643 10644 10644 10644 10644 10644 10644 10643 10642 10641 10641 10641 10641 10640 10640 10638 10635 10633 10631 10630 10628 10628 10628 10627 10626 10625 10624 10624 10623 10621 10621 10620 10618 10616 10616 10615 10614 10613 10611 10610 10609 10606 10604 10602 10599 10598 10596 10594 10591 10588 10585 10583 10580 10578 10575 10571 10568 10565 10562 10559 10557 10554 10550 10546
10617 10620 10623 10624 10625 10625 10626 10627 10629 10631 10632 10633 10634 10634 10635 10636 10637 10638 10639 10638 10638 10638 10638 10639 10639 10639 10639 10638 10638 10637 10637 10636 10636 10636 10635 10635 10633 10631 10629 10628 10627 10625 10624 10624 10622 10621 10620 10619 10619 10618 10616 10616 10616 10614 10612 10611 10610 10609 10608 10606 10604 10603 10600 10598 10596 10593 10591 10589 10587 10585 10581 10579 10576 10573 10570 10566 10564 10561 10558 10554 10551 10548 10545 10541 10537
10611 10616 10619 10619 10619 10619 10620 10622 10623 10625 10626 10627 10629 10629 10630 10631 10631 10632 10632 10632 10632 10632 10633 10633 10633 10633 10632 10633 10633 10632 10632 10632 10631 10630 10630 10629 10628 10627 10625 10624 10623 10622 10621 10620 10619 10617 10616 10615 10614 10614 10612 10611 10610 10610 10608 10606 10605 10604 10602 10600 10598 10597 10594 10591 10589 10587 10585 10582 10580 10577 10574 10571 10568 10565 10562 10557 10554 10552 10550 10546 10543 10539 10535 10531 10528
10608 10611 10613 10613 10613 10614 10615 10616 10617 10619 10620 10622 10623 10624 10625 10626 10626 10626 10626 10626 10627 10626 10626 10628 10628 10627 10626 10626 10627 10627 10627 10627 10626 10625 10624 10623 10623 10622 10621 10620 10618 10617 10616 10615 10614 10613 10611 10610 10609 10608 10608 10606 10604 10603 10602 10601 10599 10597 10595 10593 10591 10591 10588 10584 10582 10580 10578 10576 10574 10571 10567 10564 10562 10559 10556 10551 10547 10544 10540 10537 10533 10529 10525 10522 10518
10605 10605 10606 10606 10607 10607 10609 10611 10612 10614 10614 10616 10617 10618 10619 10620 10620 10620 10620 10620 10620 10620 10621 10622 10622 10621 10621 10621 10621 10621 10621 10622 10621 10619 10618 10617 10617 10616 10616 10615 10613 10612 10611 10610 10609 10608 10607 10605 10604 10603 10602 10601 10598 10596 10595 10594 10593 10592 10590 10586 10584 10583 10581 10577 10573 10571 10570 10569 10567 10564 10560 10557 10556 10553 10549 10545 10541 10538 10534 10529 10524 10520 10515 10512 10509
10600 10599 10600 10601 10601 10602 10605 10607 10607 10608 10609 10610 10611 10613 10614 10614 10614 10615 10615 10615 10614 10614 10615 10616 10616 10616 10616 10616 10615 10615 10615 10616 10616 10614 10611 10610 10611 10611 10611 10611 10609 10607 10606 10605 10604 10603 10602 10601 10599 10597 10596 10594 10593 10591 10588 10586 10585 10584 10583 10581 10578 10576 10574 10571 10566 10562 10561 10561 10560 10557 10552 10548 10547 10545 10539 10534 10531 10528 10525 10521 10517 10513 10509 10505 10501
10595 10595 10596 10596 10596 10597 10601 10603 10602 10602 10603 10604 10606 10607 10608 10609 10609 10609 10609 10609 10609 10608 10610 10611 10611 10611 10611 10610 10610 10610 10609 10610 10611 10609 10604 10602 10604 10606 10605 10605 10605 10603 10602 10600 10599 10597 10595 10595 10594 10592 10590 10588 10587 10585 10583 10581 10579 10576 10575 10573 10571 10569 10567 10565 10561 10556 10552 10552 10552 10550 10545 10539 10536 10534 10529 10522 10517 10514 10511 10507 10505 10504 10501 10497 10493
10591 10591 10592 10591 10591 10592 10596 10598 10597 10596 10597 10599 10600 10600 10602 10603 10603 10604 10604 10604 10603 10603 10604 10605 10606 10605 10605 10604 10604 10604 10604 10604 10604 10603 10600 10597 10597 10599 10599 10599 10599 10598 10597 10596 10594 10592 10589 10588 10586 10585 10583 10581 10579 10578 10577 10575 10573 10571 10569 10566 10564 10562 10560 10557 10554 10550 10545 10543 10542 10542 10539 10532 10526 10525 10521 10512 10506 10503 10498 10493 10491 10490 10487 10483 10480
10586 10587 10587 10586 10586 10587 10590 10593 10592 10590 10592 10593 10593 10594 10595 10597 10598 10599 10599 10598 10597 10597 10597 10599 10599 10599 10599 10599 10599 10599 10599 10598 10597 10597 10596 10594 10592 10592 10592 10592 10591 10591 10590 10589 10588 10587 10585 10583 10580 10577 10575 10573 10571 10569 10568 10566 10565 10563 10562 10560 10557 10556 10554 10551 10548 10544 10540 10537 10534 10535 10534 10528 10521 10520 10517 10508 10501 10497 10490 10484 10480 10476 10473 10469 10465
10580 10581 10581 10581 10582 10582 10584 10585 10585 10585 10586 10587 10587 10587 10589 10590 10592 10594 10594 10592 10591 10591 10591 10592 10593 10593 10594 10593 10593 10593 10593 10593 10592 10591 10590 10589 10588 10587 10586 10585 10584 10583 10582 10580 10580 10579 10578 10576 10574 10571 10569 10566 10563 10562 10561 10559 10558 10556 10554 10552 10550 10548 10547 10545 10542 10539 10535 10532 10528 10526 10527 10523 10515 10513 10509 10502 10496 10492 10485 10479 10473 10467 10462 10459 10455
10574 10575 10575 10576 10577 10577 10577 10578 10578 10579 10579 10580 10581 10582 10583 10584 10586 10587 10588 10587 10586 10586 10585 10585 10585 10586 10587 10587 10586 10586 10587 10587 10586 10585 10584 10584 10583 10582 10580 10579 10578 10576 10575 10573 10571 10570 10568 10567 10565 10563 10561 10559 10557 10555 10553 10552 10551 10549 10546 10544 10542 10540 10540 10538 10535 10531 10528 10524 10518 10514 10515 10513 10506 10501 10498 10493 10489 10484 10478 10471 10466 10460 10456 10453 10450
10569 10570 10570 10570 10571 10570 10570 10570 10570 10571 10572 10573 10574 10575 10577 10578 10579 10580 10581 10581 10581 10580 10579 10578 10577 10577 10579 10581 10581 10580 10580 10580 10580 10579 10578 10577 10577 10575 10573 10572 10570 10568 10567 10565 10564 10561 10559 10557 10555 10553 10551 10550 10548 10546 10544 10543 10542 10540 10538 10536 10533 10532 10531 10529 10526 10522 10517 10513 10506 10501 10501 10499 10494 10489 10485 10481 10478 10474 10468 10462 10458 10454 10451 10448 10444
10563 10564 10564 10564 10564 10563 10563 10562 10562 10562 10563 10564 10567 10569 10570 10572 10572 10573 10573 10573 10574 10574 10573 10571 10570 10569 10569 10571 10573 10574 10574 10574 10573 10573 10572 10570 10569 10567 10565 10564 10562 10560 10559 10557 10555 10553 10550 10547 10545 10543 10541 10539 10537 10536 10534 10534 10532 10531 10529 10527 10524 10522 10521 10518 10516 10512 10508 10503 10495 10488 10486 10485 10481 10477 10472 10469 10467 10464 10458 10453 10450 10446 10442 10439 10436
10557 10557 10558 10558 10558 10557 10556 10555 10554 10553 10554 10556 10559 10561 10563 10565 10565 10565 10564 10565 10565 10566 10565 10564 10563 10562 10562 10562 10564 10566 10567 10567 10566 10565 10563 10562 10560 10558 10557 10555 10554 10552 10550 10548 10546 10544 10541 10538 10536 10533 10532 10530 10528 10526 10525 10524 10523 10521 10520 10518 10514 10511 10509 10506 10503 10501 10499 10494 10486 10478 10472 10470 10467 10463 10457 10453 10452 10451 10446 10441 10439 10436 10432 10428 10425